Location: Bruderhein
(53.8035°N, 112.9265°W)
Time: 03:11:00
(UTC+00:00)

BEESAT - Pass Details

Date: 04 April 2023
Orbit: 696 x 706 km, 98.5° (Epoch: 31 May)

Event Time Altitude Azimuth Distance (km) Brightness Sun altitude
Rises 05:42:30 0° 11° (NNE) 3,114 ? -26.1°
Reaches altitude 10° 05:44:52 10° 5° (N) 2,190 ? -26.3°
Maximum altitude 05:49:22 42° 296° (WNW) 1,003 ? -26.6°
Enters shadow 05:51:17 29° 246° (WSW) 1,297 ? -26.7°
